sat.trackr.live / text

‹ back to catalog

STARLINK-34588

NORAD 64729 · 2025-144F

PAYLOAD ACTIVE UNKNOWN

§ Identity

Operator
Country
US
Launch date
2025-07-02
Launch site
AFETR
Launch vehicle
Mass (kg)
RCS (m²)

Purposes: comms

External: N2YO · Heavens-Above · Gunter

§ Orbital elements

Epoch: 2026-05-25T03:07:06.156768Z

Period
94.11 min
Inclination
53.1583°
Eccentricity
0.0001181
Mean motion
15.30205421 rev/d
Perigee alt
474.4 km
Apogee alt
476.0 km
Semi-major
6,853.3 km
B*
4.1977e-4
RAAN
186.0986°
Arg perigee
84.5712°
Mean anomaly
275.5423°
Rev number
5,141

§ Raw data

STARLINK-345881 64729U 25144F   26145.12993237  .00012096  00000+0  41977-3 0  99962 64729  53.1583 186.0986 0001181  84.5712 275.5423 15.30205421 51413

JSON: /api/v1/satellites/64729 · /tle

For live sub-satellite position, see the globe view (requires WebGL).

§ Visibility from observer

Set your observer location to see the next 7 days of passes ≥ 10°. The values pass through the URL so the page stays shareable.

No JS? Fill the form by hand. The geolocation button needs JavaScript.